RH
71 73 74 73 73 71 72 77 79 77 74 73 73 67 60 53 48 45 42 41 41 41 45 50 53 54 55 55 54 52 48 40 31 24 16 10 8 9 11 10 6 2 2 2 2 3 3 4 4 3 3 4 4 5 4 4 5 5 5 5 5 5 5 5 5 5 5 5 5 5 5 4 4 4 3 3 2 3 6 10 14 20 26 30 35
73 74 74 74 73 72 77 80 77 73 72 74 73 67 61 54 49 46 44 43 43 43 46 50 52 54 55 55 53 49 42 32 24 17 10 7 8 10 10 7 3 2 2 3 3 4 4 4 4 4 4 4 4 5 5 5 5 5 5 5 5 6 6 5 6 5 5 5 5 5 5 4 4 4 3 3 3 4 7 13 18 25 33 38 42
74 76 76 75 74 77 81 79 73 71 74 75 74 71 65 58 52 49 47 45 45 46 47 50 53 54 55 54 51 44 34 25 17 11 7 7 9 9 7 3 2 2 3 3 4 4 4 4 4 4 4 5 5 5 5 5 5 5 6 6 6 6 6 6 6 5 5 5 5 5 5 5 5 3 3 3 3 6 9 15 24 32 40 45 47
75 76 77 76 77 82 82 75 71 73 76 78 77 73 66 61 56 52 49 47 46 47 49 51 53 54 55 53 47 38 28 18 11 8 8 9 9 6 3 2 2 3 3 4 4 4 4 4 4 4 5 5 5 5 5 5 5 5 6 6 6 6 6 6 6 6 6 5 5 6 5 5 5 3 3 3 4 7 13 20 30 40 45 47 49
76 77 79 80 82 83 78 72 73 77 80 80 76 70 67 64 59 54 51 49 47 48 50 52 53 54 54 50 41 31 20 11 7 7 10 10 6 3 2 2 3 3 4 4 4 4 4 4 4 5 5 5 5 5 5 5 6 6 6 6 6 7 7 6 6 6 6 6 6 6 6 5 5 4 3 3 4 8 15 25 37 46 47 47 50
79 81 82 82 82 78 72 72 75 79 81 77 70 67 66 64 60 56 53 49 48 49 51 53 54 55 52 45 33 22 13 7 7 10 11 8 3 2 3 3 4 4 4 4 4 4 4 4 5 5 5 5 5 5 5 6 6 6 6 6 6 7 7 7 7 6 6 7 6 6 6 6 5 4 4 4 6 11 18 27 40 51 52 48 48
81 82 81 79 76 71 70 74 77 78 78 72 68 67 67 64 61 58 54 51 49 50 52 53 55 54 48 37 25 15 8 7 10 12 9 5 2 3 3 3 4 4 4 4 4 4 4 4 5 5 5 5 5 5 6 6 6 6 6 7 7 7 7 7 7 7 6 7 7 6 6 6 5 4 4 4 8 16 26 34 42 52 56 54 50
80 79 76 74 70 68 72 75 76 77 76 72 70 69 67 65 63 59 54 52 51 52 54 55 55 50 40 29 18 10 8 10 13 11 6 2 2 3 4 4 4 4 4 4 4 4 5 5 5 5 5 5 5 6 6 6 6 6 6 7 7 7 7 7 7 7 7 7 7 7 7 6 6 5 4 5 7 17 33 44 52 58 60 61 63
77 74 71 69 67 69 73 74 75 77 76 75 74 72 69 67 64 60 55 53 53 54 56 56 53 45 32 21 13 8 10 14 14 8 3 2 3 4 4 5 4 4 4 4 4 5 5 5 5 5 5 6 6 6 6 6 6 7 7 7 7 7 8 8 7 7 7 7 7 7 7 6 6 5 4 6 10 21 37 51 61 67 64 64 72
75 69 68 68 67 71 74 74 75 75 75 77 76 73 71 68 64 61 57 56 56 57 57 56 50 38 26 15 9 9 14 15 10 4 2 3 4 4 5 4 4 4 4 4 5 5 5 5 5 6 6 6 7 7 7 7 7 8 8 7 8 8 8 8 8 8 7 8 8 7 7 7 6 5 5 7 14 26 42 57 66 70 66 63 67
76 73 72 71 71 75 75 72 71 70 72 76 76 74 73 69 66 63 59 59 59 58 59 55 44 31 20 11 8 12 16 12 5 2 3 4 4 4 5 4 4 4 4 5 5 5 5 6 6 6 7 7 7 7 7 8 8 9 9 8 9 9 8 8 8 8 8 8 8 8 8 7 6 6 7 9 17 29 46 62 70 69 66 63 63
76 77 77 76 76 76 72 67 66 67 72 77 77 76 75 72 68 65 62 62 61 60 59 51 38 24 14 8 11 15 14 7 2 3 4 4 5 5 4 4 4 5 5 5 6 5 6 6 6 7 7 8 8 8 8 9 9 9 9 9 10 9 10 9 8 9 9 8 9 9 8 8 7 7 8 10 18 32 47 63 72 70 69 70 69
72 76 77 77 76 72 67 65 67 71 76 80 80 79 77 74 71 67 65 64 63 62 58 47 32 19 10 9 14 15 10 3 2 4 4 4 5 5 5 5 4 5 6 6 6 6 6 7 7 8 8 9 9 9 10 10 10 10 10 10 11 10 10 10 9 10 10 9 9 9 9 9 7 7 10 13 19 32 47 62 71 70 69 74 73
72 73 75 75 73 68 63 65 72 77 80 83 83 82 80 77 73 69 67 67 65 62 56 43 26 12 8 13 17 12 5 2 3 4 4 5 5 4 5 5 5 6 6 6 6 6 7 7 7 8 9 10 10 11 11 11 10 11 11 10 11 11 10 11 10 10 10 10 10 10 9 9 8 7 10 14 20 32 46 61 71 69 66 69 70
76 75 75 74 73 69 65 69 79 84 84 86 87 85 82 79 75 72 70 69 67 63 55 39 20 8 10 17 16 7 3 3 4 5 5 5 5 5 5 5 6 7 6 6 7 6 7 7 7 9 9 10 11 12 12 12 11 11 11 11 12 12 11 11 11 10 11 11 10 11 10 9 9 8 9 13 18 29 46 63 72 69 63 62 65
81 80 80 78 77 74 70 75 86 90 90 90 90 87 85 82 77 74 73 72 69 62 49 29 12 7 14 18 11 3 3 4 4 5 6 5 5 5 6 6 7 7 7 7 7 7 7 8 8 9 10 10 12 13 13 13 13 12 12 12 12 12 12 12 12 11 12 12 11 11 11 10 9 9 9 12 16 24 41 60 69 68 64 60 58
86 87 87 86 85 81 77 82 91 94 96 95 90 87 86 84 80 77 75 73 69 59 40 19 8 11 16 14 6 3 4 4 5 6 6 5 6 6 6 7 7 7 7 7 7 7 7 8 9 10 11 12 13 13 14 14 15 14 14 13 13 13 13 12 13 13 12 12 12 12 11 11 10 9 8 10 14 21 34 53 67 72 70 66 63
93 95 94 92 90 87 85 87 91 94 96 93 87 86 87 86 83 80 78 73 66 52 31 11 8 15 16 9 4 3 4 4 5 6 5 5 6 6 6 8 7 7 8 7 7 8 8 9 10 10 12 13 13 14 14 15 16 16 15 15 14 14 14 13 13 14 13 13 13 12 12 11 10 10 9 8 11 18 30 49 69 79 79 76 72
97 100 99 93 88 87 88 90 91 95 97 94 88 86 88 88 85 82 80 76 64 45 23 10 11 17 14 6 3 4 5 5 6 6 6 6 6 6 7 8 8 8 8 7 8 9 9 9 10 11 12 14 14 15 15 15 16 17 16 16 16 15 15 15 14 14 14 14 14 13 12 12 11 10 10 9 9 14 25 44 66 81 86 84 79
100 101 100 95 89 87 91 96 95 95 97 95 89 86 87 89 88 85 82 76 58 36 18 11 16 18 11 4 4 4 5 6 6 6 6 6 7 7 8 9 8 8 8 8 8 9 10 10 10 11 13 14 14 15 16 15 16 17 17 17 17 16 16 16 16 16 15 15 15 14 13 13 12 11 10 10 9 11 18 33 54 76 88 88 83
99 99 100 100 94 87 90 97 97 95 97 95 88 84 87 90 90 87 84 73 51 29 16 14 20 18 7 3 5 5 5 7 7 6 7 7 7 8 9 9 9 8 8 8 9 10 10 10 10 11 12 13 14 15 15 16 16 17 18 18 18 18 18 18 17 17 17 16 16 16 15 14 13 12 12 11 9 9 12 20 38 63 82 90 88
99 99 100 101 97 90 91 97 98 98 99 95 86 84 89 92 91 90 85 70 45 23 15 17 19 13 5 3 5 5 6 7 7 7 8 8 8 9 9 9 9 9 9 9 9 10 11 10 10 11 12 13 14 14 15 16 16 17 18 19 19 20 20 20 19 18 18 18 17 17 17 16 15 14 13 12 11 10 10 13 23 44 68 87 94
100 100 100 99 97 97 98 99 99 99 98 96 90 87 90 93 93 92 86 70 44 23 17 21 18 9 3 4 6 6 7 7 7 8 8 9 10 10 10 10 10 10 9 9 9 10 11 10 10 11 11 12 13 13 14 15 16 17 18 18 19 21 21 22 21 20 20 19 18 18 18 18 18 16 15 14 13 11 10 10 13 25 47 73 90
97 97 98 98 98 100 100 99 98 94 92 94 92 88 89 93 94 93 87 69 42 23 21 22 14 5 4 5 5 6 8 7 7 8 9 10 11 11 11 11 11 11 10 9 9 10 10 10 11 11 11 11 12 13 13 13 15 16 17 17 18 20 21 22 22 22 21 21 20 20 19 20 20 19 17 16 15 13 12 10 9 12 25 48 73
96 100 99 99 100 100 99 100 99 92 90 93 93 89 89 92 94 94 89 70 44 27 25 21 10 4 5 6 6 7 8 8 8 9 10 11 12 12 12 12 11 11 10 9 9 10 10 11 11 11 12 12 12 12 13 13 15 16 16 17 18 18 20 21 22 23 23 22 22 21 20 21 21 21 20 18 17 15 13 12 11 9 12 24 46
91 99 99 99 100 99 99 101 98 92 91 95 95 91 89 90 93 95 88 68 45 32 26 18 8 4 5 6 7 8 8 8 9 9 11 13 13 13 13 12 11 11 10 9 10 11 10 11 12 12 12 12 12 13 13 14 15 16 16 17 17 17 18 19 20 22 23 24 23 22 22 22 22 22 22 21 19 17 15 14 12 10 9 10 20
77 86 94 99 99 99 101 100 94 90 92 95 93 89 88 89 93 96 87 67 51 42 30 14 5 5 6 6 7 8 9 9 10 11 12 14 15 14 14 13 12 11 10 10 11 11 11 11 12 12 13 13 13 13 14 14 15 16 17 17 17 17 18 18 19 21 23 24 25 24 24 24 23 23 24 23 22 20 18 16 14 12 11 9 9
75 79 92 100 100 99 100 98 92 90 93 94 90 88 90 91 93 96 88 68 53 43 27 10 4 6 7 8 8 9 10 11 12 13 13 15 16 16 15 13 12 11 11 11 11 11 11 11 11 12 13 13 13 13 13 14 15 15 16 17 17 17 18 18 19 21 22 24 25 25 26 25 25 25 25 24 24 23 20 19 16 14 13 10 8
89 87 95 100 99 99 100 95 89 90 95 96 94 94 95 93 93 93 80 60 46 33 16 6 7 8 7 9 10 9 11 13 13 13 14 16 17 17 16 14 12 12 11 11 11 11 11 11 11 12 13 13 14 14 14 14 15 15 16 16 17 17 17 17 18 18 19 21 23 24 26 26 26 27 26 26 26 25 23 22 19 16 15 12 10
89 89 96 100 97 98 100 97 93 94 97 97 98 100 98 93 93 91 72 51 41 31 14 5 7 9 10 12 12 11 12 14 13 13 15 17 17 17 16 15 13 12 12 12 11 11 11 11 11 12 13 13 14 14 14 14 15 15 16 16 16 16 16 15 16 16 17 18 20 22 25 27 27 27 28 27 28 27 25 24 22 18 17 15 12
84 84 92 99 99 99 100 100 99 98 97 96 97 101 99 93 93 93 78 59 49 37 18 7 8 10 11 13 13 13 15 15 14 15 17 18 19 18 17 15 14 13 13 12 12 11 11 11 11 12 12 13 14 14 14 14 14 14 15 16 15 15 15 15 15 16 16 17 19 20 23 26 27 28 29 29 29 29 27 26 25 22 19 18 15
79 83 90 97 100 99 96 96 98 98 97 96 98 101 99 93 90 90 85 77 67 45 18 7 10 11 11 15 18 17 16 15 15 16 18 19 20 19 17 15 14 14 14 13 12 12 11 12 12 12 12 13 13 14 14 14 15 15 15 15 15 14 14 14 14 15 15 16 17 19 21 24 27 29 31 31 30 31 30 28 27 25 22 20 18
69 82 95 100 100 99 97 97 99 98 96 97 100 100 99 97 93 87 82 81 70 42 14 7 12 13 13 16 19 17 16 16 16 16 18 20 20 19 17 16 15 16 15 14 13 13 13 12 13 12 12 13 13 14 14 14 15 15 15 15 14 12 12 14 15 15 15 15 16 19 20 22 25 28 31 32 32 33 33 30 29 28 25 23 21
63 76 91 98 98 98 99 99 99 97 95 98 101 100 99 100 96 88 84 79 60 32 13 12 15 15 15 15 15 16 18 18 16 17 18 20 20 19 18 17 17 18 17 16 15 15 14 13 13 13 13 13 13 13 14 14 15 16 15 15 13 12 12 14 15 15 15 15 16 18 20 21 23 26 29 32 33 34 35 33 31 30 28 26 24
63 70 82 91 95 98 100 100 99 97 97 99 100 99 100 99 90 84 86 77 50 24 15 16 16 15 15 14 15 19 20 18 17 18 19 20 20 19 18 18 19 20 20 19 18 17 15 15 14 14 13 14 13 13 14 14 15 16 15 13 12 12 12 13 14 14 15 15 16 18 20 21 23 25 27 31 33 35 36 36 34 32 31 29 27
63 70 80 89 95 99 100 99 98 97 97 100 100 98 101 98 83 77 81 68 37 17 15 15 14 15 14 14 20 25 22 18 17 19 20 20 20 19 19 20 21 21 22 21 19 18 17 16 15 15 14 14 14 13 13 14 14 16 15 12 11 11 12 13 12 12 13 15 16 19 21 23 25 26 27 30 33 36 37 38 37 35 33 32 30
60 69 81 92 99 99 97 97 99 99 98 100 100 98 100 97 82 78 83 68 33 15 16 18 17 16 15 18 26 29 24 20 20 21 20 20 20 20 20 21 21 21 22 22 20 19 18 17 16 15 15 14 14 13 13 14 14 15 14 11 10 11 12 12 11 10 12 14 17 20 23 25 26 28 28 30 32 35 37 38 39 39 37 35 33
52 60 74 89 99 101 98 98 100 100 98 100 100 99 101 96 83 84 93 76 39 20 22 24 21 19 23 31 37 35 29 24 22 21 20 20 19 21 21 21 21 22 23 23 22 20 19 18 17 16 15 14 14 13 13 14 14 14 13 11 10 11 12 11 10 10 12 15 18 20 23 26 27 29 30 31 32 34 36 38 39 40 40 39 37
50 58 71 86 97 100 99 99 100 99 99 101 99 97 100 97 89 94 98 76 39 23 22 20 17 20 30 39 42 37 31 26 22 21 20 20 20 22 22 21 21 22 23 24 23 21 20 19 17 17 16 15 14 14 13 13 13 13 12 10 10 12 13 11 11 12 14 16 19 20 22 25 28 30 32 34 34 34 36 37 38 40 41 42 41
53 61 74 88 97 100 99 100 99 97 99 101 99 98 100 97 96 101 96 66 33 22 20 14 13 18 28 36 40 37 31 26 22 19 19 19 20 21 21 21 22 23 23 25 24 22 21 20 18 17 17 15 14 14 13 13 13 12 11 10 10 12 13 12 12 13 15 16 19 22 23 26 29 32 35 38 38 36 36 36 38 39 41 43 44
66 72 81 91 98 100 100 100 96 94 97 101 99 99 101 98 99 102 87 55 30 24 21 15 15 21 29 38 43 39 32 27 23 21 20 19 19 19 19 21 23 24 25 26 25 23 22 20 18 18 17 16 15 14 12 12 12 11 10 9 10 11 13 14 14 14 15 16 20 24 27 30 32 35 38 40 41 40 39 38 38 39 40 42 44
83 88 93 98 100 99 100 100 97 96 98 100 99 100 100 99 100 97 78 52 36 29 21 17 22 30 38 46 47 42 35 31 27 23 21 19 18 18 19 21 23 24 25 26 25 24 23 21 20 18 17 16 15 13 12 12 12 11 10 9 9 10 12 14 16 16 16 19 23 27 31 33 36 37 39 41 42 42 40 38 38 39 39 40 41
93 97 99 100 100 99 100 100 97 96 98 99 100 100 99 99 99 90 71 51 39 27 19 24 36 44 49 51 50 46 41 35 28 23 20 18 17 18 19 20 22 24 25 26 26 25 23 22 21 19 17 15 14 12 12 12 12 12 11 9 9 11 13 15 18 20 21 23 27 31 34 37 38 39 40 41 42 42 42 41 40 40 40 40 39
99 100 99 100 100 99 100 98 95 94 98 100 100 100 98 97 96 83 62 46 34 24 19 26 38 46 52 57 57 52 43 33 26 22 20 19 18 18 19 20 22 24 25 25 25 25 24 23 21 19 17 15 13 12 12 13 13 13 13 11 10 12 15 17 20 24 26 28 30 34 38 41 43 43 43 43 43 43 43 43 43 43 42 42 42
100 100 99 99 98 98 98 96 95 97 100 100 100 100 98 96 92 80 61 44 32 25 23 27 33 44 56 64 62 54 43 33 28 25 22 20 19 19 19 20 21 23 24 24 24 24 24 22 21 19 16 14 14 13 13 14 14 14 14 14 14 15 18 21 24 28 31 32 34 39 45 48 51 52 51 51 51 51 50 48 47 46 45 45 45
100 100 100 99 99 99 99 98 98 100 100 99 100 100 100 98 94 83 67 51 37 30 28 30 36 48 62 67 62 53 44 38 34 30 25 22 21 21 21 21 21 21 23 23 23 23 23 22 20 18 16 14 14 14 14 15 16 15 16 17 18 20 23 25 28 32 35 36 39 45 53 57 58 59 59 58 58 60 61 59 56 54 52 50 49
99 100 100 100 99 100 100 100 100 100 99 99 100 100 100 100 97 87 72 57 43 33 29 32 40 54 66 70 65 58 50 43 37 31 27 25 25 24 23 22 21 21 22 22 22 23 22 21 19 18 16 14 14 15 15 16 17 17 17 18 20 24 27 30 32 35 38 39 42 49 58 64 62 60 60 60 60 60 62 64 64 61 60 58 56
99 99 100 100 99 99 99 99 100 100 99 99 100 100 99 100 99 88 71 55 41 31 28 35 47 60 69 73 70 63 56 47 38 31 27 27 27 26 24 22 21 21 21 22 22 21 21 20 19 17 15 14 14 14 15 17 18 18 18 19 22 27 31 33 34 38 42 45 46 50 59 67 68 65 63 63 62 59 57 59 62 64 66 67 67
97 97 99 100 100 99 100 99 100 100 100 100 100 100 99 100 99 90 72 54 40 32 33 41 54 65 72 75 73 65 56 45 35 30 28 28 27 25 23 22 21 21 21 21 21 21 20 19 18 16 15 15 14 15 16 17 17 18 19 21 25 32 36 36 35 39 46 51 53 52 56 63 69 71 71 71 71 70 66 61 61 64 71 77 79
95 94 96 98 99 99 99 100 100 100 100 100 100 100 99 100 101 95 80 61 47 41 44 53 63 71 76 77 72 61 49 38 31 29 27 26 24 23 22 21 21 21 21 21 21 20 19 18 17 16 15 15 15 16 17 18 18 20 22 25 30 38 42 40 36 37 46 58 65 66 65 65 67 70 72 74 77 79 78 73 68 68 73 80 83
89 88 89 92 95 97 99 100 100 100 100 100 100 100 100 100 100 99 91 75 59 52 56 65 72 76 79 78 70 57 43 34 29 27 25 23 22 21 21 20 20 20 21 21 21 20 18 17 16 16 16 16 16 17 19 21 23 26 27 28 30 34 37 37 36 40 52 70 85 90 87 83 78 73 70 71 75 80 82 81 77 75 76 81 84
Wind_Speed
19 19 19 18 17 16 15 14 13 12 11 10 10 11 12 12 12 12 13 14 14 14 13 13 12 12 12 12 12 12 12 12 12 12 12 13 15 16 18 19 20 21 21 20 20 20 20 21 22 23 24 24 25 25 26 27 29 29 30 31 33 35 36 37 38 37 35 36 38 40 41 43 44 45 46 46 45 45 42 39 37 36 35 34 33
19 19 19 19 18 17 16 15 13 12 10 10 10 10 10 11 11 13 13 14 13 12 12 12 11 11 11 12 12 12 12 11 12 12 12 14 15 17 19 19 20 20 19 19 19 19 20 21 22 22 23 24 24 25 26 27 28 28 30 31 32 34 36 37 38 39 38 38 39 40 41 43 45 46 48 49 48 47 44 40 36 34 34 32 30
21 21 20 20 19 18 17 15 14 12 11 10 11 11 11 11 12 13 14 13 12 12 12 11 11 11 11 12 12 11 11 11 11 12 13 14 16 17 18 19 19 19 18 18 19 20 20 21 21 22 22 23 24 25 26 26 27 28 29 30 32 33 34 36 38 39 40 40 41 42 43 44 46 47 49 50 49 48 46 42 38 35 33 31 28
22 22 22 21 21 19 18 17 15 13 12 12 12 12 12 12 13 14 14 13 12 12 12 11 11 11 12 12 12 11 11 11 11 12 13 15 16 17 18 18 18 17 17 18 19 19 20 20 21 21 22 22 23 24 25 26 27 28 29 30 31 32 34 36 37 39 41 42 42 43 45 46 47 48 50 51 51 49 47 43 40 37 33 30 28
23 23 23 22 22 20 19 18 15 14 13 13 13 13 13 13 14 14 14 13 12 12 12 11 12 12 12 12 11 11 10 11 11 12 13 15 16 17 17 17 17 16 17 17 18 19 19 19 20 20 21 22 23 24 25 26 27 27 28 29 31 32 34 36 37 39 41 43 44 44 45 46 47 49 51 53 53 50 47 44 42 40 35 31 30
24 25 24 23 22 21 19 17 15 13 13 13 13 14 14 14 14 15 14 14 13 12 12 12 12 12 12 11 11 10 10 10 11 12 14 15 16 17 17 16 15 16 16 17 17 18 18 19 19 20 21 22 22 23 24 25 27 27 28 29 31 33 35 36 38 39 41 43 44 45 45 47 49 50 52 53 55 53 49 46 43 43 40 35 31
25 25 25 24 22 20 18 16 14 13 13 13 14 14 14 14 15 15 15 14 14 13 13 13 13 12 12 11 10 10 10 11 12 13 13 14 15 16 15 15 15 15 16 16 17 17 17 18 19 20 21 22 22 23 24 24 26 27 28 30 32 34 36 37 39 40 41 43 45 46 47 48 50 52 53 54 55 55 53 50 48 47 47 42 36
25 25 25 23 22 20 17 15 14 13 13 13 14 14 14 14 16 16 15 15 14 14 14 13 13 12 11 10 10 10 10 11 12 13 13 14 15 14 14 14 14 14 15 15 16 16 17 17 18 19 20 21 22 23 24 24 25 27 29 31 34 35 37 38 40 41 42 43 45 46 48 49 51 53 55 56 57 57 56 55 54 54 53 48 39
24 24 23 22 21 20 18 16 15 14 14 14 14 14 15 16 17 17 16 15 15 15 14 13 13 12 11 10 10 10 10 11 12 12 13 13 13 13 13 13 13 13 14 14 15 15 16 17 18 19 20 21 22 23 24 25 26 29 31 33 35 36 37 39 41 42 43 44 46 48 49 50 53 55 57 59 60 59 58 57 58 59 56 47 37
22 22 22 21 21 21 19 17 16 15 14 13 14 15 16 17 18 18 17 16 16 15 14 13 13 12 11 10 10 10 11 11 11 12 12 13 12 12 12 12 12 13 13 13 14 14 15 16 17 18 19 20 21 22 23 25 27 29 32 34 35 37 38 40 41 42 43 45 47 49 51 52 54 56 58 60 60 59 60 61 62 60 54 44 35
23 22 22 22 23 22 20 18 17 16 15 14 15 16 16 18 19 18 17 17 16 15 14 13 13 12 11 10 10 11 11 11 11 12 12 12 12 12 11 11 11 12 12 12 13 13 14 15 16 17 18 18 20 22 23 25 27 29 31 33 35 37 39 40 41 42 44 45 47 49 52 53 54 56 59 60 60 61 61 62 62 59 52 45 40
25 23 23 24 24 23 21 20 18 17 16 15 15 16 18 19 20 19 18 18 16 15 14 14 13 12 11 11 10 11 11 10 11 11 11 11 11 11 10 10 11 11 11 12 12 12 13 14 15 16 17 18 19 21 23 25 26 28 30 31 33 35 37 39 41 43 44 46 47 49 51 53 54 56 59 61 62 62 62 62 61 58 53 48 46
27 26 25 25 25 24 23 21 19 18 16 15 16 17 18 20 21 20 19 18 17 15 15 14 14 13 12 11 11 11 10 10 11 11 10 10 10 9 9 10 10 10 10 10 11 12 13 13 14 15 16 18 20 21 23 24 25 27 28 30 31 33 34 36 38 41 43 45 47 48 50 52 54 55 58 61 62 63 63 63 62 59 55 51 48
30 29 28 27 26 26 24 22 20 19 17 16 16 17 19 21 22 20 19 18 17 16 16 15 14 13 12 11 11 11 10 10 10 10 10 9 9 9 9 8 9 9 9 9 10 11 12 13 14 15 16 18 20 22 23 23 25 26 27 29 30 32 34 35 36 39 42 44 46 48 49 50 52 54 56 58 61 62 63 63 63 60 55 50 47
33 32 31 30 29 28 26 23 21 20 18 17 17 17 19 21 22 21 20 19 18 17 17 16 15 14 13 12 11 10 10 10 10 9 9 8 8 8 8 7 8 8 8 8 9 10 11 12 14 15 17 18 20 22 23 24 25 26 27 28 29 31 33 35 36 39 41 43 45 46 47 48 49 51 54 56 58 60 60 59 60 59 55 49 46
36 34 34 33 32 30 27 24 22 21 19 18 17 18 19 22 23 22 20 19 18 17 17 16 15 14 13 12 12 11 11 11 10 9 8 7 7 7 7 6 6 6 6 7 9 10 11 12 13 15 17 19 20 22 23 24 25 26 27 28 29 30 32 33 35 38 39 41 43 44 45 46 47 49 51 54 56 58 58 57 58 59 58 54 50
38 37 37 36 34 31 29 25 24 23 20 18 17 18 20 22 23 23 21 19 18 18 17 16 15 14 14 13 12 12 12 11 10 9 7 6 6 6 5 5 5 5 5 7 8 10 11 12 13 15 17 19 20 22 23 24 25 26 27 28 29 30 31 32 34 36 37 39 40 42 43 44 45 46 49 52 55 57 59 59 59 60 61 60 58
40 39 38 38 36 33 30 27 26 25 21 18 17 19 20 22 24 23 22 20 19 19 18 17 16 15 14 14 13 12 12 11 9 8 7 6 6 5 5 5 5 5 5 6 8 9 11 12 13 15 17 19 20 21 23 24 25 27 27 29 30 31 32 33 34 35 37 38 39 40 42 43 44 46 48 50 53 56 58 59 60 60 61 62 62
39 39 38 39 38 34 30 29 29 27 22 18 18 19 21 23 25 24 22 21 20 19 19 18 17 16 15 14 13 13 12 11 10 8 7 6 6 5 5 5 5 5 5 6 8 9 11 12 13 15 17 18 20 21 23 24 26 27 28 30 31 32 34 36 37 37 38 39 40 41 42 44 45 46 48 50 51 54 56 58 59 59 60 61 62
37 37 37 39 37 31 29 29 28 24 21 20 18 19 21 24 26 25 23 21 20 20 20 19 18 17 16 14 13 13 13 11 10 9 8 7 6 5 5 6 6 5 5 6 7 9 11 12 14 15 16 18 20 21 23 24 26 28 29 30 32 33 35 36 37 38 39 39 40 42 43 44 46 47 49 50 51 53 55 57 58 58 58 59 60
35 35 36 37 36 32 29 29 26 21 21 21 19 19 22 25 26 25 24 22 21 20 20 20 19 17 16 14 14 14 13 12 10 9 8 7 7 6 6 6 6 6 6 6 7 9 11 13 14 15 16 18 19 21 22 24 26 27 29 30 32 33 34 35 36 37 38 38 39 41 42 44 46 48 49 50 52 53 54 56 57 57 56 56 57
31 33 32 32 33 32 29 29 27 24 24 24 21 21 23 25 27 26 24 23 21 21 21 20 19 17 16 15 14 14 14 12 11 10 9 8 7 7 7 6 6 6 7 7 8 9 11 13 14 15 16 17 19 20 22 24 25 27 28 29 30 32 33 34 35 35 36 37 38 40 42 44 46 48 50 51 52 52 53 54 55 55 54 53 54
30 31 31 31 31 30 29 31 31 28 28 26 23 21 23 25 27 27 25 23 22 22 22 21 20 18 16 15 15 15 14 13 12 11 10 9 8 7 7 7 7 7 8 7 8 9 11 13 14 15 16 17 19 20 22 23 25 26 27 28 29 30 31 32 33 34 35 36 38 39 42 45 47 48 50 51 52 52 52 52 52 53 54 52 51
31 30 30 30 31 30 31 34 33 26 24 25 23 21 22 25 27 27 26 24 23 23 22 22 20 19 17 16 16 16 15 14 13 12 11 9 9 8 8 7 7 8 8 8 8 9 11 12 14 15 16 17 19 20 22 23 25 26 27 28 29 30 30 31 32 33 34 35 37 39 41 44 46 47 49 50 51 51 51 51 50 51 52 52 51
31 32 30 30 31 32 33 34 31 24 22 23 22 20 22 24 27 28 27 25 24 23 23 22 21 20 18 17 17 16 16 15 14 13 11 10 9 9 9 8 8 8 9 8 7 8 10 12 13 15 16 18 19 20 22 23 25 26 27 28 29 30 30 31 31 32 33 35 36 38 39 41 44 46 46 47 49 50 51 51 51 51 51 52 51
30 33 33 33 33 32 30 30 28 24 23 22 20 21 22 23 26 28 27 25 25 24 23 23 23 21 19 18 18 17 16 16 15 13 12 11 10 10 10 9 9 9 8 8 7 8 10 11 13 15 16 18 19 20 22 23 24 25 27 28 29 30 31 32 32 33 33 34 35 36 37 39 41 43 44 45 47 49 51 52 53 53 53 53 53
29 33 34 33 31 28 26 26 25 25 24 22 21 23 22 23 26 28 27 26 25 24 24 24 23 21 20 19 18 17 17 16 15 14 13 12 11 11 11 10 10 9 9 8 7 8 10 11 13 14 16 18 19 20 21 22 23 25 26 27 28 30 31 32 33 34 34 34 34 35 35 36 38 40 43 45 46 48 50 52 53 54 54 54 54
29 33 34 31 27 25 26 27 27 27 26 23 24 25 23 22 24 27 27 26 24 23 23 24 23 22 21 20 18 17 17 16 15 15 14 13 12 12 12 11 10 10 10 9 8 8 10 11 13 14 16 18 19 20 21 23 24 25 26 27 28 29 30 31 32 32 32 32 33 33 34 35 36 38 40 43 45 46 48 50 52 53 54 55 55
31 35 36 32 27 26 28 28 28 29 27 26 27 27 24 22 24 26 28 27 26 25 25 24 23 22 21 20 18 18 17 17 17 17 16 15 14 13 13 12 11 11 10 10 9 9 10 11 13 14 15 17 19 20 21 22 24 25 26 27 28 29 30 31 31 32 33 33 33 34 34 35 36 37 38 40 42 44 46 48 50 51 53 54 55
33 35 36 34 30 27 28 28 30 31 30 29 30 28 25 23 24 27 29 28 28 29 28 27 26 25 23 21 20 20 20 19 19 18 17 16 15 15 14 14 13 12 11 10 9 9 10 12 13 14 15 17 18 19 21 22 23 25 26 27 28 29 30 31 32 33 34 34 35 35 35 36 36 37 37 38 40 42 44 45 47 49 51 53 55
30 32 35 34 30 28 28 29 32 32 30 29 30 29 26 24 25 28 31 30 30 31 31 29 29 27 24 23 22 22 22 21 19 18 18 18 17 16 16 15 14 12 12 11 10 10 11 12 13 14 15 17 19 20 21 22 23 25 26 28 29 31 32 33 34 34 35 35 35 35 35 36 36 37 37 38 38 40 42 43 44 46 48 51 53
31 33 33 31 29 28 29 30 31 29 27 28 29 29 27 25 26 29 32 32 32 32 32 31 29 27 25 24 23 23 22 21 20 20 20 19 18 18 17 16 15 13 13 11 10 10 11 12 14 15 16 17 19 20 21 22 24 26 27 29 30 31 33 34 35 36 36 36 36 36 36 36 36 36 37 37 37 38 39 41 43 45 46 47 49
33 34 33 31 28 27 28 28 28 27 26 27 28 28 27 27 28 30 31 32 32 33 33 32 29 27 26 25 24 24 23 23 21 21 21 20 20 19 18 17 16 15 14 12 11 11 12 13 14 15 16 18 19 21 22 23 24 26 28 30 31 33 34 34 35 36 37 37 37 37 36 36 35 35 35 36 36 36 38 39 41 43 44 45 47
34 36 35 32 30 28 27 27 27 28 28 28 27 27 28 28 29 30 32 32 31 32 32 31 28 27 27 27 25 25 24 23 22 22 22 22 21 21 20 18 17 16 15 13 12 12 13 14 15 16 17 19 20 21 22 23 24 26 28 30 32 33 34 34 35 36 37 38 37 37 36 35 35 34 34 35 35 35 35 36 38 41 43 44 45
33 35 35 33 31 28 27 26 27 29 31 30 28 28 29 30 31 32 32 31 30 30 31 30 28 27 28 28 26 24 23 22 22 23 24 23 23 22 21 19 18 17 16 15 14 13 14 15 16 17 18 20 21 22 23 23 24 26 28 30 31 32 33 34 34 36 37 37 37 37 36 35 35 34 34 34 34 34 33 34 36 38 40 42 44
32 34 35 34 31 29 28 28 28 29 31 31 29 30 32 32 33 33 31 30 30 31 31 30 28 28 29 28 25 24 24 24 24 25 25 25 24 23 21 20 19 18 17 15 15 15 15 16 17 18 19 21 22 23 24 24 25 26 28 30 31 31 32 33 34 35 36 37 37 36 36 35 34 33 32 32 32 33 32 32 33 35 37 39 41
30 33 35 35 32 29 28 28 28 28 31 32 31 31 32 33 33 34 32 31 32 33 32 31 30 30 29 27 26 25 26 26 26 26 26 26 25 23 23 22 21 19 18 16 16 16 16 17 18 19 20 21 22 24 25 26 26 27 29 30 30 30 31 32 33 35 36 36 36 36 35 34 33 33 32 31 31 31 31 30 29 31 33 35 37
27 32 35 36 35 32 30 29 28 28 30 31 30 31 32 32 33 33 31 30 31 33 32 31 31 31 28 26 27 28 29 29 28 26 26 26 25 24 24 24 23 21 19 18 18 18 18 18 19 20 21 22 23 25 26 27 28 29 30 30 30 30 30 31 33 34 35 35 35 35 34 33 33 32 32 31 30 30 30 29 28 28 29 31 34
25 30 33 35 35 34 32 29 28 28 29 31 31 32 32 32 32 31 29 29 31 33 32 31 32 31 29 27 28 29 30 29 28 27 27 28 27 26 26 26 24 22 20 19 19 19 19 20 21 21 22 23 24 25 27 28 29 30 30 29 29 29 30 31 32 33 34 34 34 34 34 33 32 32 31 30 30 29 29 29 29 27 27 29 31
26 29 32 34 34 33 30 27 25 26 28 30 32 33 33 31 31 30 29 30 33 34 33 32 31 30 29 29 30 29 29 28 27 27 28 28 28 28 28 27 25 23 22 21 21 21 21 21 22 23 23 24 25 26 28 29 29 30 30 29 28 28 29 31 31 32 32 32 32 33 33 33 32 31 30 29 28 28 28 29 29 28 27 26 27
27 28 29 32 33 33 30 27 26 25 26 28 31 34 33 31 29 28 28 31 34 34 32 30 30 30 31 31 31 30 29 29 29 28 29 29 29 29 28 27 25 24 23 22 23 23 22 22 23 24 24 25 26 27 29 29 29 30 30 29 29 29 29 30 30 31 31 31 31 31 32 32 31 30 29 27 27 27 27 27 28 28 27 26 25
25 27 28 30 31 31 30 28 26 25 25 27 30 33 33 31 28 27 29 32 34 33 31 30 31 32 32 33 31 30 30 30 29 29 29 29 29 29 28 27 26 25 24 24 25 25 24 24 24 25 26 26 27 28 29 30 29 29 29 29 29 29 29 29 29 30 30 30 30 29 29 29 29 29 28 27 26 26 26 26 27 27 28 27 25
22 25 27 29 30 31 30 28 25 24 25 27 29 31 32 31 29 29 31 33 34 32 31 31 32 32 32 32 31 30 30 29 29 28 28 28 29 28 28 27 27 26 26 26 26 26 26 26 26 27 27 27 28 28 29 30 29 29 29 29 29 29 29 28 28 29 29 29 28 27 26 26 26 26 26 26 26 25 25 26 26 27 27 27 27
19 23 26 27 27 28 28 25 22 21 23 26 28 30 32 31 29 30 32 33 33 33 32 33 33 32 31 31 30 28 27 27 27 27 27 28 29 28 28 28 28 27 27 27 28 28 27 27 27 28 28 28 28 29 29 29 29 29 29 29 29 29 28 28 27 27 28 28 27 25 23 22 23 24 24 25 25 25 25 25 25 26 26 27 27
17 20 23 23 19 17 17 16 15 16 20 24 26 28 30 30 30 32 34 35 34 34 33 33 33 33 32 30 27 26 26 27 27 27 27 28 28 29 28 28 28 28 28 29 29 29 29 28 29 29 29 29 29 29 29 29 29 29 29 29 28 28 27 27 27 27 27 27 25 23 21 20 20 21 22 23 23 24 24 25 25 26 26 26 27
14 15 17 17 13 9 9 9 10 12 15 18 20 23 26 28 30 32 34 35 35 34 34 33 33 32 31 29 26 25 26 27 27 27 27 27 28 28 28 28 28 29 29 29 29 29 29 29 30 30 30 29 29 29 29 29 29 29 29 28 28 27 26 26 26 26 26 26 24 22 20 18 19 20 21 21 22 23 24 25 25 26 26 27 27
16 15 15 15 13 10 9 9 10 12 13 14 16 19 22 25 28 29 31 33 34 35 34 32 32 32 31 29 27 26 27 27 27 26 26 26 27 27 28 28 28 29 29 30 30 30 30 30 30 30 30 30 30 30 30 29 29 29 28 28 27 26 26 25 26 26 26 25 23 21 19 18 18 19 20 20 21 21 23 24 25 25 26 26 27
19 17 15 14 14 13 11 11 12 13 14 15 16 18 20 23 25 27 30 32 34 34 33 31 31 32 32 30 27 26 26 27 27 26 25 25 25 26 27 28 28 29 30 30 30 31 31 31 31 31 31 31 31 30 30 29 29 28 28 27 27 26 25 25 26 26 26 26 24 22 20 18 17 18 18 19 20 21 22 22 23 24 25 27 27
22 20 18 16 15 14 13 14 14 15 15 16 17 18 20 22 25 27 30 33 34 34 33 32 31 32 31 29 26 25 25 26 26 26 25 25 25 26 27 28 29 29 30 31 31 31 32 31 31 32 32 32 31 31 30 30 29 28 27 27 26 26 26 26 26 26 26 26 26 25 23 21 19 18 19 19 20 21 21 22 23 23 24 25 27
23 22 19 16 14 13 13 15 16 16 16 16 17 17 19 22 24 27 30 34 36 35 33 31 31 31 31 28 26 24 25 25 26 25 25 26 26 27 28 29 29 29 30 31 31 31 31 31 32 32 32 32 32 31 30 30 29 28 27 26 26 26 27 28 27 26 26 26 27 27 26 25 23 21 21 21 21 22 22 23 23 24 24 24 24
26 24 19 15 12 11 12 13 14 15 16 16 17 17 18 20 22 24 28 33 35 34 32 31 32 32 31 28 26 25 24 24 24 24 24 25 26 27 28 28 28 29 30 31 31 31 31 31 32 32 32 32 31 31 30 30 29 28 27 27 27 27 28 28 27 26 25 25 26 27 29 28 27 25 23 22 23 24 24 24 25 25 25 25 24
Wind_Direction
212 214 215 217 218 219 224 228 230 232 237 250 264 269 272 274 276 281 283 283 282 282 285 287 290 293 294 293 292 293 295 297 301 308 313 314 316 318 321 323 324 325 327 329 331 333 336 338 338 338 339 341 342 341 341 342 342 341 341 341 341 340 339 339 339 341 344 342 340 339 338 337 338 337 335 336 336 336 335 334 329 325 321 317 314
216 218 218 219 221 222 225 226 226 227 235 251 265 273 277 279 280 282 281 280 282 284 286 287 288 289 287 287 288 291 294 299 305 309 312 314 315 318 320 322 325 327 329 331 333 336 338 339 339 340 341 342 341 341 342 342 342 342 342 342 342 341 340 340 340 341 343 344 342 341 340 340 339 339 337 337 337 338 338 337 333 328 325 322 319
218 219 219 220 221 221 222 222 221 226 239 256 270 277 280 282 281 280 278 280 283 283 283 283 282 282 282 283 287 291 296 302 305 307 310 313 315 317 320 324 327 329 331 333 336 338 339 339 340 341 342 342 342 342 342 343 342 342 343 343 342 342 342 342 343 343 344 345 344 343 342 342 341 340 338 338 339 340 340 338 336 334 332 330 326
219 219 220 220 219 219 220 219 222 232 248 263 272 276 278 279 277 276 277 280 280 279 278 277 277 277 278 282 286 291 296 299 300 304 308 312 315 318 323 327 329 330 332 335 338 339 339 340 340 341 342 342 342 343 343 342 343 343 343 342 342 344 345 346 347 346 345 345 346 346 344 343 342 341 340 339 341 342 341 339 339 340 339 338 333
218 219 219 219 218 218 219 220 228 243 257 266 271 273 274 274 273 273 276 277 275 274 273 272 272 272 275 280 284 289 292 293 296 301 308 313 316 320 325 328 329 331 334 337 338 339 339 340 341 341 342 342 343 343 343 341 342 343 342 342 344 346 348 349 349 349 348 347 346 347 346 343 342 343 342 341 342 344 343 342 343 344 343 342 338
218 219 218 218 219 218 219 223 235 249 259 265 270 272 272 271 270 271 272 272 270 269 267 265 265 267 271 276 280 284 286 288 295 302 310 316 319 322 326 328 329 332 335 338 338 339 340 341 342 342 342 343 343 342 342 342 342 341 342 344 347 349 350 351 351 351 350 348 347 347 347 345 344 344 345 344 344 345 345 343 345 348 348 346 341
218 219 219 219 219 217 219 229 240 247 254 262 268 271 271 269 267 267 266 265 264 262 260 259 260 263 268 272 276 278 281 287 297 305 312 317 320 323 325 326 329 333 336 338 339 340 342 342 343 343 343 343 342 342 342 342 342 342 344 348 350 351 352 352 353 353 351 350 348 347 348 347 346 346 346 345 346 347 347 345 346 350 351 350 344
221 222 221 219 217 217 223 232 237 242 250 259 266 270 269 266 263 262 261 259 257 255 255 255 258 261 265 268 272 274 280 290 299 306 313 318 320 321 322 325 330 334 336 338 339 341 344 344 344 344 343 343 342 342 343 343 344 346 349 351 352 353 354 353 354 354 352 351 349 348 349 349 347 347 347 347 348 350 350 348 348 351 352 352 350
224 223 222 220 218 220 226 231 234 241 249 256 262 265 264 261 259 257 255 253 252 251 251 253 256 260 262 264 267 273 282 292 299 308 314 318 318 318 320 326 331 334 336 338 341 344 345 346 346 345 345 344 345 345 345 346 348 351 352 353 353 353 355 355 354 353 353 352 350 350 351 351 349 348 348 350 350 351 351 351 352 353 352 352 356
226 224 222 221 222 224 227 229 233 241 248 254 260 260 258 256 254 253 251 249 248 248 249 252 255 256 258 261 265 273 283 292 300 309 313 315 315 315 320 327 331 334 336 339 343 346 347 349 349 348 347 347 348 348 349 352 354 355 354 354 354 354 355 355 354 353 353 353 353 352 352 352 352 350 350 351 351 352 353 354 355 356 354 352 358
227 226 225 225 225 226 227 228 235 243 249 255 258 257 255 253 251 250 248 246 245 246 248 251 252 253 255 257 263 273 283 291 300 308 310 310 311 314 321 328 330 333 338 342 345 348 351 353 353 352 351 352 353 353 355 357 358 357 356 356 355 354 354 354 353 353 354 355 355 353 352 353 353 352 350 351 352 354 356 356 357 359 358 354 354
228 228 227 227 226 225 226 229 237 244 250 256 257 254 251 249 247 246 245 244 244 244 246 248 249 250 251 254 263 273 281 290 299 304 306 305 309 314 322 326 329 335 341 344 348 352 356 358 357 357 358 358 0 1 1 0 360 359 358 357 357 356 355 354 353 353 354 355 356 355 354 353 354 353 352 352 354 355 357 358 358 1 1 356 352
230 229 229 228 226 226 228 233 238 243 248 256 258 253 248 245 244 243 242 243 243 244 246 246 246 247 248 253 264 272 279 289 295 298 300 302 307 315 321 324 330 339 343 345 352 358 0 2 2 4 5 6 7 7 6 4 2 0 359 358 358 357 356 355 354 354 355 356 357 356 355 354 354 354 353 353 355 356 357 358 359 1 1 358 353
231 231 232 231 229 229 232 235 238 241 247 256 260 254 246 243 242 240 239 240 242 243 243 244 243 243 245 252 262 268 275 285 289 291 294 299 305 312 317 323 333 340 342 348 357 2 4 4 6 8 10 11 12 11 9 6 4 2 0 360 359 357 356 356 356 356 357 357 357 357 356 356 356 356 355 355 356 357 358 358 358 360 0 359 356
232 233 234 234 232 232 235 236 237 240 246 255 261 257 248 243 241 239 237 238 241 243 243 243 241 240 245 253 258 263 270 278 281 283 288 295 301 308 313 323 333 336 340 352 1 4 5 6 8 10 11 12 13 12 10 9 6 4 2 1 0 358 357 357 357 358 359 359 358 357 357 357 357 357 356 356 358 359 358 357 357 358 358 358 0
231 233 235 235 233 233 235 235 235 239 245 252 259 259 252 244 241 239 237 237 240 242 241 241 239 238 245 251 252 257 266 270 272 276 281 287 294 300 308 319 327 329 339 357 3 3 4 6 9 11 11 12 12 10 9 9 8 6 4 2 1 1 359 358 359 360 360 360 359 358 357 358 358 359 358 358 359 360 359 358 358 359 358 358 0
229 231 234 234 233 234 235 234 233 236 238 244 255 259 253 245 240 238 237 236 237 239 238 236 235 238 244 246 247 254 262 263 265 270 274 278 284 289 300 311 315 321 340 358 2 360 1 4 7 10 11 10 9 8 7 7 7 6 4 2 1 1 360 0 2 2 1 0 360 359 358 358 360 1 1 1 1 2 0 359 359 359 358 358 359
229 230 233 234 232 231 232 232 233 235 234 239 250 256 252 244 239 237 234 233 234 236 235 232 232 237 241 242 245 252 258 258 260 263 264 268 272 277 288 297 299 311 338 354 359 358 358 1 5 9 9 7 5 4 4 4 5 4 3 2 1 360 359 1 3 3 1 1 360 360 359 360 1 4 5 4 4 5 3 1 359 358 358 358 357
232 232 235 236 234 230 227 229 233 232 230 235 244 251 249 242 238 236 234 232 233 234 233 231 231 235 237 238 244 251 254 254 255 255 255 257 260 266 275 280 287 305 332 347 354 355 354 356 2 6 6 4 2 1 0 1 2 1 1 1 360 359 359 0 1 1 1 0 359 360 0 1 3 5 7 7 7 8 7 3 360 359 358 358 356
231 234 238 241 242 238 233 239 244 235 225 230 239 247 248 241 237 236 234 231 231 232 232 232 232 234 235 236 244 251 251 250 250 247 246 247 249 256 265 270 282 301 322 338 348 351 350 353 359 3 3 1 359 358 358 359 359 359 359 358 358 358 359 360 359 359 360 359 359 359 0 2 3 6 8 9 9 10 10 8 3 360 358 357 357
229 233 238 243 248 247 242 248 256 243 223 225 234 243 246 240 236 236 234 230 230 229 230 232 233 232 232 235 243 249 247 246 245 240 237 238 241 249 259 268 283 299 313 330 343 347 348 350 355 358 359 359 358 356 356 357 357 357 357 356 356 357 357 357 357 357 357 358 358 358 360 2 4 5 8 10 10 11 12 11 7 2 358 357 358
226 233 238 241 247 250 247 248 251 240 223 223 231 238 241 237 235 236 234 229 228 227 227 231 232 229 229 234 240 244 244 242 240 237 233 232 236 245 256 268 284 296 306 323 339 345 347 348 351 353 356 356 356 355 355 356 356 356 355 354 354 354 354 354 354 354 355 356 357 357 359 1 4 5 7 9 11 11 12 13 11 6 2 358 358
225 233 239 240 241 246 247 245 246 239 225 223 229 233 235 236 235 236 235 231 228 226 226 230 229 225 226 232 237 239 239 237 234 232 230 230 234 243 255 268 282 293 302 319 336 343 345 346 347 350 353 355 354 354 355 355 355 354 353 352 352 351 352 351 351 351 352 354 355 357 359 1 3 5 6 7 10 11 12 13 14 11 7 2 360
224 228 234 236 237 243 247 249 253 247 228 223 229 230 232 235 236 235 233 230 227 225 227 229 227 224 224 229 233 235 235 232 229 226 226 229 235 243 254 266 279 289 300 315 331 340 343 345 345 347 351 353 353 354 354 354 354 353 351 350 350 349 349 349 348 349 351 351 353 356 359 0 2 4 6 6 7 9 11 12 13 15 14 9 4
225 226 231 232 234 243 250 255 259 250 227 223 230 231 233 237 238 236 233 230 227 226 227 228 225 222 224 227 230 232 232 230 226 223 224 229 236 245 255 264 275 286 296 309 326 337 341 341 342 344 348 351 351 352 353 353 352 351 349 348 348 347 347 347 347 348 349 350 352 355 358 360 1 2 4 5 6 7 9 10 12 14 16 16 12
232 229 230 229 233 245 252 254 253 239 224 224 230 233 236 239 238 236 232 229 226 225 226 227 224 222 223 226 228 230 230 229 226 222 224 230 238 247 256 264 273 282 291 303 319 332 336 336 338 342 346 347 348 349 351 350 349 348 347 346 346 345 345 344 346 347 349 349 351 353 355 358 359 360 1 3 5 6 7 9 10 11 14 17 18
230 224 224 228 236 245 249 249 242 228 221 227 234 236 238 240 240 237 233 229 228 226 225 225 224 223 224 225 226 227 228 228 226 224 226 232 239 248 256 263 271 277 284 295 310 324 329 330 334 340 343 344 344 346 346 347 347 347 346 345 343 343 343 343 344 346 347 347 348 350 352 355 357 358 359 1 4 6 7 7 8 10 11 13 17
226 218 221 230 237 240 243 245 235 221 219 228 234 235 237 240 243 240 234 231 230 227 225 224 223 223 224 223 223 225 227 227 226 226 230 235 241 249 255 261 267 271 278 289 302 316 323 325 331 338 341 340 341 342 343 343 343 344 343 342 341 341 340 341 341 342 343 344 345 347 349 351 354 357 358 359 2 5 6 7 8 9 10 11 15
229 222 222 229 233 236 242 244 233 223 223 229 233 232 231 234 238 236 231 229 225 221 219 219 220 221 221 219 220 221 223 223 224 227 231 235 241 248 254 258 261 266 275 285 298 311 317 322 329 335 337 337 337 338 339 340 340 340 339 339 338 337 337 338 338 339 340 342 344 345 347 350 352 355 357 359 0 3 5 6 7 8 9 10 13
230 224 221 225 230 238 243 239 231 228 229 232 235 234 229 230 236 234 229 227 225 221 216 214 216 217 215 214 216 217 218 221 225 229 233 237 243 248 253 256 259 263 273 284 295 306 313 319 325 330 333 333 332 333 335 335 336 336 335 334 334 334 335 336 337 338 339 341 343 344 346 348 350 352 355 357 359 1 3 5 6 7 9 10 11
222 218 217 222 232 243 245 237 233 235 237 236 236 234 230 231 236 235 230 226 226 224 218 214 216 217 212 210 213 216 218 221 224 229 235 238 243 248 251 254 258 264 272 281 291 301 309 315 320 326 328 328 327 329 331 332 332 333 332 331 331 332 334 335 336 337 338 339 341 343 345 346 348 350 352 355 357 359 1 3 5 7 9 10 10
214 212 216 225 237 246 247 243 240 242 242 238 235 233 233 235 236 234 230 228 227 226 220 216 217 216 212 212 214 216 219 221 223 228 234 238 243 247 250 252 256 263 270 278 286 296 303 309 315 321 323 324 324 325 327 329 330 330 330 329 330 331 333 335 336 336 337 338 340 342 343 345 347 348 350 352 354 357 359 1 3 5 8 11 12
215 212 218 229 239 246 250 250 248 245 243 241 237 235 237 240 238 232 229 229 229 226 220 217 216 215 213 214 215 216 218 220 223 229 234 239 243 247 249 251 255 261 268 275 283 292 299 306 311 316 319 320 320 322 324 327 328 328 328 327 328 331 333 334 335 335 336 337 339 340 342 343 345 346 348 349 352 355 357 359 1 3 5 9 12
220 217 221 229 236 242 249 254 251 244 239 238 237 236 237 239 237 231 227 227 228 226 222 220 219 216 215 216 215 216 218 221 225 231 236 240 244 246 248 251 254 259 266 272 280 289 297 303 308 311 315 317 318 319 322 325 326 327 325 325 327 330 331 332 333 333 334 335 337 338 340 341 343 344 346 347 350 353 356 357 359 1 3 6 9
224 223 224 227 232 239 249 257 256 246 237 234 233 233 235 235 232 228 226 226 226 224 221 221 220 218 218 217 216 218 221 223 227 233 237 241 244 246 248 250 253 257 263 270 278 286 293 299 304 308 311 314 315 317 320 323 325 324 322 322 326 328 329 330 331 331 332 333 335 337 339 340 341 343 344 345 347 350 354 357 359 0 2 3 5
225 224 224 226 232 238 245 254 257 248 240 237 236 234 233 231 227 226 226 224 221 218 215 215 216 217 218 218 218 221 224 225 229 234 239 242 245 248 249 251 252 256 262 268 276 284 290 296 301 304 307 310 313 315 319 321 323 321 320 321 325 327 327 328 330 330 331 332 334 336 338 339 339 341 342 343 345 348 351 355 357 359 1 2 3
226 224 223 226 233 240 245 253 256 246 236 236 236 233 230 229 227 227 226 223 220 217 213 212 213 215 216 218 221 224 225 227 229 234 240 244 247 249 250 251 252 255 261 267 274 281 288 293 296 300 304 308 311 314 317 319 320 319 319 321 324 325 326 327 328 329 331 332 333 336 339 340 340 340 340 341 343 345 348 351 355 358 360 1 2
231 228 226 227 233 239 244 254 260 252 239 236 236 231 226 226 229 230 227 222 219 217 215 216 216 214 212 216 220 223 224 225 228 233 239 244 246 248 249 250 252 255 260 266 272 278 284 290 294 298 303 307 311 313 314 315 317 317 317 320 322 323 324 326 328 329 331 332 334 337 340 342 342 342 341 340 341 342 345 348 351 355 358 360 1
236 232 229 229 233 237 242 252 261 257 248 243 241 235 228 226 229 230 225 218 215 214 214 217 218 214 212 216 221 223 223 225 228 234 240 244 246 247 249 250 252 254 259 264 270 276 282 288 293 297 301 305 308 310 311 313 314 314 315 318 320 321 322 324 327 329 330 332 334 337 340 342 344 343 342 341 340 341 342 345 347 350 355 358 1
238 234 232 230 232 239 247 255 261 258 250 245 245 242 234 227 225 224 218 212 211 212 214 217 216 213 215 221 225 226 226 228 230 235 240 243 245 247 249 250 252 254 258 263 269 274 280 285 291 295 299 303 306 307 308 310 311 312 314 316 319 320 321 323 325 327 329 331 334 337 340 342 344 344 344 343 342 341 341 343 345 347 350 354 358
240 236 234 232 234 241 250 256 258 257 249 243 243 244 239 231 226 222 214 209 210 213 216 216 213 212 217 223 226 227 228 229 232 236 240 242 245 247 249 251 253 255 258 263 268 272 277 283 289 293 297 301 303 304 305 307 309 310 312 314 316 318 319 321 323 325 327 331 335 338 340 342 343 345 346 345 344 342 342 342 344 345 346 348 352
244 237 234 234 238 245 251 256 259 257 249 241 239 240 237 231 226 219 212 209 211 215 217 214 210 211 218 224 227 228 228 230 233 238 241 243 246 248 251 253 254 256 259 263 267 271 276 282 288 292 295 298 300 301 304 306 307 309 310 312 313 315 317 319 322 323 326 330 335 338 340 342 344 345 347 347 347 345 343 343 344 344 344 345 346
252 241 236 237 241 247 252 259 264 261 250 243 242 242 238 231 222 215 210 209 209 212 215 214 211 213 220 225 227 228 228 230 236 241 244 246 248 250 252 254 255 256 259 262 266 271 275 280 286 290 293 295 298 300 302 304 306 307 308 309 310 312 314 317 319 322 325 329 335 338 340 342 343 345 347 349 349 348 346 345 345 345 345 345 345
251 243 241 241 245 250 255 262 266 258 246 242 243 243 241 235 224 215 212 209 208 210 214 214 214 217 222 225 227 227 228 232 238 243 245 247 249 249 251 254 255 256 259 262 266 270 274 279 284 287 290 293 296 298 300 302 303 304 305 306 307 309 311 314 316 320 323 328 333 337 339 340 342 344 347 349 351 351 350 349 349 348 348 348 346
240 238 239 240 244 250 255 259 261 255 249 248 248 248 247 242 232 222 214 209 207 209 212 214 216 219 222 224 226 227 229 233 238 242 245 248 249 249 251 254 255 256 259 262 266 270 274 278 282 285 288 292 294 296 298 299 300 301 301 302 303 305 307 311 314 317 321 325 330 333 336 337 340 342 344 347 350 352 352 352 352 352 352 352 351
232 235 237 238 240 242 246 253 256 255 255 257 258 258 258 254 245 233 221 212 209 210 213 215 218 220 222 223 225 227 228 233 239 244 248 250 250 250 252 254 256 258 260 263 266 270 274 277 280 283 287 289 291 293 295 295 296 297 297 298 300 302 306 309 312 314 318 322 325 327 329 332 335 338 340 342 346 349 351 351 352 352 353 353 354
228 237 240 238 236 239 246 252 253 252 252 256 259 261 262 259 252 239 225 215 212 214 216 218 220 221 222 224 226 227 229 234 240 247 250 251 251 251 252 254 256 258 261 264 267 270 273 276 279 281 284 287 289 290 291 291 292 292 293 294 297 301 305 308 310 311 314 317 319 319 320 323 328 331 334 336 341 345 349 350 350 350 350 351 352
228 238 244 242 240 244 253 257 256 253 252 252 254 257 260 259 252 239 225 216 215 217 218 219 220 222 224 226 227 228 230 236 243 249 251 250 250 251 252 253 254 257 260 263 267 270 272 275 277 280 283 285 287 288 288 288 288 288 288 290 294 299 303 306 308 310 311 312 312 312 311 313 318 324 328 331 334 339 343 345 345 346 347 348 348
229 232 239 243 246 253 263 268 265 260 255 253 254 256 259 259 252 240 227 219 216 217 218 219 221 224 226 226 226 228 234 240 245 248 248 247 247 249 250 252 254 257 260 264 267 270 272 274 277 280 282 284 285 286 287 286 285 285 286 289 293 298 301 303 306 308 308 308 308 307 305 304 306 312 318 322 326 330 334 337 338 339 341 344 346
240 238 238 238 241 252 265 271 268 262 258 257 258 259 261 261 256 246 234 225 220 219 219 220 223 227 227 225 226 231 237 242 244 245 245 245 246 247 250 253 255 258 261 264 267 269 271 274 277 279 281 282 283 284 285 284 284 284 285 288 291 294 296 300 304 307 307 307 307 307 306 303 300 301 305 310 316 320 323 326 329 331 334 338 342
246 244 239 236 241 254 265 269 266 260 257 258 261 264 266 266 261 252 242 232 225 221 220 222 225 226 225 224 227 233 239 242 243 244 245 246 247 249 252 254 256 259 262 264 266 268 270 273 275 277 279 280 282 283 283 283 283 282 283 285 287 289 292 296 300 302 303 304 305 305 305 304 301 298 297 299 304 309 313 316 318 320 324 328 332